Weather Roundup
Issued by NWS

Home | Current Version | Previous Version | Graphics & Text | Print | Product List | Glossary Off
Versions: 1 2 3 4 5 6 7 8 9 10 11 12 13 14 15 16 17 18 19 20 21 22 23 24 25 26 27 28 29 30 31 32 33 34 35 36 37 38 39 40 41 42 43 44 45 46 47 48 49 50

000
NZUS93 KARX 260159
HRRWXR

CURRENT HOURLY OBSERVATIONS ACROSS
MUCH OF THE UPPER MISSISSIPPI VALLEY
NATIONAL WEATHER SERVICE LA CROSSE WI
800 PM CST TUE NOV 25 2014


...SOUTHEAST MINNESOTA...


CITY           SKY/WX    TMP DP  RH WIND       PRES   REMARKS
ROCHESTER      CLOUDY    18  13  80 S9        30.04S WCI   7
ROCHESTER/MAYO CLOUDY    20  13  73 SE10      30.04S WCI   8
WINONA         CLOUDY    23  16  74 CALM      30.11R
AUSTIN         CLOUDY    21  16  79 SE8       30.02F WCI  12
ALBERT LEA     PTCLDY    21  18  86 SE10      30.00S WCI  10
DODGE CENTER   CLOUDY    21  18  86 SE14      30.00F WCI   8
PRESTON        PTCLDY    14  10  85 S5        30.06S WCI   6
OWATONNA       CLOUDY    25  16  68 SE12      30.00R WCI  14
FARIBAULT      CLOUDY    25  16  68 SE7       30.01S WCI  17
$$

...ELSEWHERE IN MINNESOTA...


CITY           SKY/WX    TMP DP  RH WIND       PRES   REMARKS
MINNEAPOLIS    CLOUDY    24  15  68 SE9       30.01F WCI  14
INTNL FALLS    CLOUDY    13   8  81 CALM      29.99R
DULUTH         CLOUDY    18   9  68 S5        29.99R WCI  11
RED WING       CLOUDY    25  16  68 SE7       30.04S WCI  17
REDWOOD FALLS  CLOUDY    27  17  66 SE12      29.94S WCI  17
MANKATO        PTCLDY    23  12  63 SE12      29.99S WCI  12
WORTHINGTON    CLOUDY    30  18  59 S12       29.89F WCI  21
FAIRMONT       MOCLDY    27  12  54 SE14      29.95F WCI  15
$$

...SOUTHWEST WISCONSIN...


CITY           SKY/WX    TMP DP  RH WIND       PRES   REMARKS
LA CROSSE      MOCLDY    22  14  71 S8        30.10S WCI  12
PRAIRIE DU CHI CLEAR     16  12  85 CALM      30.12S
BOSCOBEL       CLEAR     12   8  84 CALM      30.12S
LONE ROCK      NOT AVBL
PLATTEVILLE    CLEAR     18  15  89 CALM      30.11S
FORT MC COY    CLOUDY    18  15  88 CALM      30.10R
VIROQUA        FAIR      15  12  85 S3        30.06R
WIS DELLS      CLEAR     14  12  92 S3        30.09S FOG
$$

...ELSEWHERE IN WISCONSIN...


CITY           SKY/WX    TMP DP  RH WIND       PRES   REMARKS
MILWAUKEE      CLOUDY    21  15  78 SW5       30.16R WCI  15
MADISON        CLEAR     15  13  91 CALM      30.12R
GREEN BAY      CLOUDY    21  15  78 SW3       30.12S
EAU CLAIRE     CLOUDY    22  14  71 SE8       30.05F WCI  12
BLACK RVR FLS  CLOUDY    22  17  79 CALM      30.08R
MEDFORD        CLOUDY    17  12  82 SE5       30.02S WCI  10
WAUSAU         CLEAR     13  10  88 E3        30.04F
WIS RAPIDS     CLOUDY    17  13  84 S3        30.09S
MARSHFIELD     CLOUDY    20  14  77 CALM      30.04F
RICE LAKE      CLOUDY    21  15  77 SE7       30.04S WCI  13
$$

...NORTHEAST IOWA...


CITY           SKY/WX    TMP DP  RH WIND       PRES   REMARKS
DECORAH        PTCLDY    16  10  79 S5        30.07R WCI   9
MASON CITY     PTCLDY    20  15  81 SE12      30.03S WCI   8
CHARLES CITY   CLOUDY    19  14  79 SE9       30.06S WCI   9
OELWEIN        CLEAR     16  12  86 SE6       30.09S WCI   7
$$

...ELSEWHERE IN IOWA...


CITY           SKY/WX    TMP DP  RH WIND       PRES   REMARKS
DES MOINES     PTCLDY    30  12  47 SE10      30.04F WCI  21
IOWA CITY      CLEAR     20  17  88 SE3       30.14R
FORT DODGE     MOCLDY    28  12  50 SE8       29.99F WCI  20
$$

...NORTHERN ILLINOIS...


CITY           SKY/WX    TMP DP  RH WIND       PRES   REMARKS
CHICAGO-OHARE  PTCLDY    18  14  84 SW5       30.17S WCI  11
CHICAGO-MIDWAY PTCLDY    23  17  78 SW6       30.18S WCI  16
MOLINE         CLEAR     15  12  88 E3        30.15S
ROCKFORD       CLEAR     14  10  84 S5        30.18R WCI   6
PEORIA         CLEAR     23  18  81 CALM      30.18S
$$

NOTE: "FAIR" INDICATES FEW OR NO CLOUDS BELOW 12,000 FEET WITH NO
SIGNIFICANT WEATHER AND/OR OBSTRUCTIONS TO VISIBILITY. WIND
SPEEDS ARE IN MILES-PER-HOUR.



USA.gov is the U.S. government's official web portal to all federal, state and local government web resources and services.